This is the latest recevied weather packets stored in our database for station/object JE9BHE-13. If no packets are shown the sender has not sent any weather packets the latest 10 day(s).
| Time | Temp. | Humidity | Pressure | Rain* | Wind** | Luminosity | Snow |
|---|---|---|---|---|---|---|---|
| 1778127486 | 26.11° C | 47% | 1014.7 hPa | 0 mm | - | - | - |
| 1778127306 | 26.11° C | 49% | 1014.5 hPa | 0 mm | - | - | - |
| 1778127128 | 26.67° C | 46% | 1014.5 hPa | 0 mm | - | - | - |
| 1778126587 | 26.11° C | 50% | 1014.7 hPa | 0 mm | - | - | - |
| 1778125327 | 26.11° C | 49% | 1014.7 hPa | 0 mm | - | - | - |
| 1778124607 | 25.56° C | 52% | 1014.8 hPa | 0 mm | - | - | - |
| 1778121547 | 25.56° C | 51% | 1015.2 hPa | 0 mm | - | - | - |
| 1778120467 | 26.11° C | 53% | 1015.3 hPa | 0 mm | - | - | - |
| 1778120287 | 25.56° C | 53% | 1015.3 hPa | 0 mm | - | - | - |
| 1778118127 | 25° C | 52% | 1015.5 hPa | 0 mm | - | - | - |
| 1778116507 | 24.44° C | 56% | 1015.5 hPa | 0 mm | - | - | - |
| 1778115786 | 24.44° C | 57% | 1015.8 hPa | 0 mm | - | - | - |
| 1778115607 | 24.44° C | 55% | 1015.9 hPa | 0 mm | - | - | - |
| 1778114166 | 23.89° C | 59% | 1015.8 hPa | 0 mm | - | - | - |
| 1778111286 | 22.22° C | 65% | 1016.5 hPa | 0 mm | - | - | - |
| 1778110386 | 22.22° C | 66% | 1016.7 hPa | 0 mm | - | - | - |
| 1778107866 | 20.56° C | 70% | 1017.1 hPa | 0 mm | - | - | - |
| 1778107506 | 20° C | 70% | 1017.1 hPa | 0 mm | - | - | - |
| 1778104087 | 16.11° C | 84% | 1017.7 hPa | 0 mm | - | - | - |
| 1778103907 | 15.56° C | 85% | 1017.8 hPa | 0 mm | - | - | - |
| 1778100127 | 12.78° C | 95% | 1017.5 hPa | 0 mm | - | - | - |
| 1778099947 | 12.78° C | 95% | 1017.8 hPa | 0 mm | - | - | - |
| 1778096706 | 12.78° C | 94% | 1017.7 hPa | 0 mm | - | - | - |
| 1778094186 | 13.33° C | 92% | 1017.8 hPa | 0 mm | - | - | - |
| 1778093286 | 13.89° C | 90% | 1017.7 hPa | 0 mm | - | - | - |
* Rain latest hour (hover to see other rain measurements)
** Current wind speed in m/s (hover to see current wind gust speed)